Location: Unspecified
(43.4680°N, 87.1740°E)
Time: 21:15:20
(UTC+00:00)

Cosmos 2263 Rocket - Pass Details

Date: 17 April 2021
Orbit: 824 x 848 km, 71.0° (Epoch: 12 May)

Event Time Altitude Azimuth Distance (km) Brightness Sun altitude
Exits shadow 18:36:27 30° 328° (NNW) 1,460 3.7 -35.5°
Drops below altitude 10° 18:40:18 10° 8° (N) 2,435 5.4 -35.4°
Sets 18:43:00 0° 19° (NNE) 3,374 6.3 -35.3°
